KC5EZZ-4 Weather Reports


Display with metric or nautical units.
time (UTC)temp
F
wind
direction
speed
MPH
gust
MPH
rain 1hr
in
rain 24hr
in
rain mn
in
humidity
%
barometer
mb
20260510073033 68 205 3.0 7.0 0.00 0.00 0.00 77 1008.4
20260510071623 68 205 4.0 8.0 0.00 0.00 0.00 77 1008.6
20260510070017 69 178 3.0 6.0 0.00 0.00 0.00 77 1008.7
20260510064506 69 170 3.0 7.0 0.00 0.00 0.00 76 1008.7
20260510063005 69 202 4.0 7.0 0.00 0.00 0.00 76 1008.9
20260510061501 70 172 3.0 7.0 0.00 0.00 0.00 75 1009.0
20260510060101 70 191 3.0 8.0 0.00 0.00 0.00 74 1009.0
20260510054556 71 171 6.0 10.0 0.00 0.00 0.00 73 1009.0
20260510053100 72 156 6.0 10.0 0.00 0.00 0.00 72 1009.1
20260510051553 72 168 4.0 7.0 0.00 0.00 0.00 72 1009.1
20260510050036 73 174 5.0 9.0 0.00 0.00 0.00 71 1009.1
20260510044535 73 165 5.0 9.0 0.00 0.00 0.00 72 1009.1
20260510043042 73 173 5.0 8.0 0.00 0.00 0.00 72 1009.2
20260510041531 73 178 3.0 5.0 0.00 0.00 0.00 70 1009.2
20260510040036 73 192 3.0 5.0 0.00 0.00 0.00 69 1009.1
20260510034524 74 169 2.0 5.0 0.00 0.00 0.00 67 1009.0
20260510033123 75 175 3.0 7.0 0.00 0.00 0.00 65 1009.0
20260510031522 76 174 4.0 8.0 0.00 0.00 0.00 63 1008.8
20260510030005 76 149 4.0 7.0 0.00 0.00 0.00 62 1008.7
20260510024502 77 162 3.0 6.0 0.00 0.00 0.00 60 1008.6
20260510023102 78 153 3.0 6.0 0.00 0.00 0.00 58 1008.5
20260510021559 79 134 2.0 5.0 0.00 0.00 0.00 56 1008.3
20260510020059 79 147 2.0 4.0 0.00 0.00 0.00 54 1008.1
20260510014556 81 155 2.0 5.0 0.00 0.00 0.00 51 1008.0
20260510013056 82 167 2.0 5.0 0.00 0.00 0.00 48 1007.8
20260510011555 84 161 2.0 7.0 0.00 0.00 0.00 45 1007.6
20260510010054 86 161 3.0 6.0 0.00 0.00 0.00 41 1007.6
20260510004543 87 162 5.0 9.0 0.00 0.00 0.00 37 1007.6
20260510003138 87 155 5.0 9.0 0.00 0.00 0.00 37 1007.5
20260510001542 88 126 4.0 10.0 0.00 0.00 0.00 38 1007.3
20260510000047 88 157 7.0 14.0 0.00 0.00 0.00 37 1007.2
20260509234536 90 179 4.0 9.0 0.00 0.00 0.00 36 1007.2
20260509233033 90 239 6.0 10.0 0.00 0.00 0.00 36 1007.3
20260509231531 89 173 2.0 10.0 0.00 0.00 0.00 38 1007.4
20260509230034 89 180 5.0 9.0 0.00 0.00 0.00 35 1007.6
20260509224517 90 138 6.0 12.0 0.00 0.00 0.00 36 1007.5
20260509223016 91 200 2.0 10.0 0.00 0.00 0.00 34 1007.5
20260509221518 91 193 4.0 11.0 0.00 0.00 0.00 35 1007.7
20260509220019 91 223 2.0 9.0 0.00 0.00 0.00 33 1007.7
20260509214510 91 178 5.0 12.0 0.00 0.00 0.00 34 1007.9
20260509213020 91 198 5.0 11.0 0.00 0.00 0.00 34 1008.1
20260509211508 91 139 6.0 8.0 0.00 0.00 0.00 33 1008.3
20260509210004 91 211 4.0 14.0 0.00 0.00 0.00 35 1008.6
20260509204551 90 169 3.0 15.0 0.00 0.00 0.00 36 1008.7
20260509203059 90 201 5.0 10.0 0.00 0.00 0.00 40 1008.9
20260509201546 91 217 3.0 10.0 0.00 0.00 0.00 40 1009.2
20260509200042 90 232 3.0 12.0 0.00 0.00 0.00 40 1009.4
20260509194540 89 215 3.0 12.0 0.00 0.00 0.00 41 1009.7
20260509193040 89 241 4.0 11.0 0.00 0.00 0.00 42 1009.8
20260509191551 90 217 5.0 11.0 0.00 0.00 0.00 41 1009.9
20260509190034 88 211 5.0 11.0 0.00 0.00 0.00 43 1010.2
20260509184532 87 215 5.0 11.0 0.00 0.00 0.00 47 1010.4
20260509183027 87 115 1.0 9.0 0.00 0.00 0.00 49 1010.6
20260509181516 87 226 3.0 9.0 0.00 0.00 0.00 49 1010.9
20260509180016 86 206 3.0 10.0 0.00 0.00 0.00 50 1011.2
20260509174520 85 223 4.0 11.0 0.00 0.00 0.00 49 1011.4
20260509173009 85 194 4.0 9.0 0.00 0.00 0.00 49 1011.3
20260509171506 84 173 3.0 8.0 0.00 0.00 0.00 54 1011.5
20260509170009 83 227 3.0 8.0 0.00 0.00 0.00 56 1011.7
20260509164544 83 242 1.0 5.0 0.00 0.00 0.00 60 1011.8
20260509163041 82 229 1.0 6.0 0.00 0.00 0.00 63 1011.8
20260509161526 81 188 3.0 7.0 0.00 0.00 0.00 1011.9
20260509160023 80 209 2.0 6.0 0.00 0.00 0.00 64 1011.9
20260509154523 80 238 1.0 7.0 0.00 0.00 0.00 65 1012.2
20260509153022 79 217 3.0 7.0 0.00 0.00 0.00 65 1012.1
20260509151516 78 241 2.0 5.0 0.00 0.00 0.00 67 1012.3
20260509150013 77 245 2.0 5.0 0.00 0.00 0.00 70 1012.5
20260509144508 75 242 0.0 5.0 0.00 0.00 0.00 74 1012.7
20260509143419 82 204 1.0 0.0 0.00 0.34 0.00
20260509143007 74 200 0.0 5.0 0.00 0.00 0.00 77 1012.8
20260509141551 72 171 0.0 4.0 0.00 0.00 0.00 78 1012.8
20260509140050 72 166 0.0 5.0 0.00 0.00 0.00 79 1012.6
20260509135918 77 169 5.0 2.0 0.00 0.34 0.00
20260509134549 71 224 0.0 2.0 0.00 0.00 0.00 81 1012.6
20260509133047 68 32 0.0 2.0 0.00 0.00 0.00 84 1012.5
20260509131546 65 32 0.0 1.0 0.00 0.00 0.00 85 1012.4
20260509130053 63 32 0.0 0.0 0.00 0.00 0.00 86 1012.4
20260509124552 61 32 0.0 1.0 0.00 0.00 0.00 86 1012.5
20260509123043 60 32 0.0 2.0 0.00 0.00 0.00 85 1012.4
20260509121533 60 32 0.0 2.0 0.00 0.00 0.00 85 1011.8
20260509120031 60 46 0.0 3.0 0.00 0.00 0.00 85 1011.9
20260509114529 60 90 1.0 4.0 0.00 0.00 0.00 85 1011.9
20260509113030 61 123 1.0 3.0 0.00 0.00 0.00 85 1011.6
20260509111528 61 175 4.0 8.0 0.00 0.00 0.00 85 1011.3
20260509110027 60 173 4.0 8.0 0.00 0.00 0.00 85 1011.2
20260509104526 60 159 3.0 5.0 0.00 0.00 0.00 85 1011.3
20260509103024 60 247 0.0 0.0 0.00 0.00 0.00 84 1011.3
20260509101516 61 247 0.0 2.0 0.00 0.00 0.00 85 1011.2
20260509100011 61 236 3.0 6.0 0.00 0.00 0.00 85 1011.0
20260509094510 61 53 0.0 2.0 0.00 0.00 0.00 84 1012.1
20260509093009 61 133 1.0 4.0 0.00 0.00 0.00 85 1012.1
20260509091510 61 123 2.0 3.0 0.00 0.00 0.00 84 1012.0
20260509090340 59 77 3.0 3.0 0.00 0.34 0.00
20260509090008 61 109 1.0 3.0 0.00 0.00 0.00 84 1012.0
20260509084505 61 46 1.0 2.0 0.00 0.00 0.00 83 1012.1
20260509083010 62 227 1.0 4.0 0.00 0.00 0.00 84 1011.5
20260509081550 62 298 0.0 1.0 0.00 0.00 0.00 83 1011.8
20260509080052 63 298 0.0 1.0 0.00 0.00 0.00 83 1011.8
20260509074552 63 333 0.0 4.0 0.00 0.00 0.00 83 1012.1